Theta_e
298 298 299 299 300 300 300 300 300 300 299 299 299 299 299 299 299 298 298 299 299 300 300 300 300 300 299 299 299 300 300 300 300 300 300 300 300 299 299 298 298 299 299 299 299 299 299 299 299 298 299 300 302 303 305 304 303 303 303 302 302 303 302 301 300 299 299 299 300 300 301 301 302 302 301 300 299 299 300 301 301 300 300 299 298 298 299 299 298 297 298 298 298 300 300 298 296 297 298 298 296 295 295
299 299 299 300 300 300 300 300 300 300 299 299 298 298 298 299 298 298 298 298 299 298 299 300 300 300 299 298 299 300 300 299 300 300 300 300 299 299 298 298 297 297 297 298 298 298 299 299 298 298 299 299 300 302 303 303 303 303 303 303 303 303 302 301 300 299 299 299 300 300 301 302 301 301 300 300 299 300 299 300 301 300 300 299 299 297 298 298 298 298 299 298 298 299 301 300 298 296 296 296 295 295 295
299 299 300 300 300 299 300 300 300 300 300 300 299 298 298 298 298 298 297 297 297 298 299 300 300 299 298 298 299 300 300 300 300 300 299 299 299 299 299 299 298 297 297 297 298 298 299 300 299 299 299 299 299 300 300 301 302 302 303 303 304 303 302 301 300 300 299 299 299 300 300 300 300 300 300 300 299 300 299 300 300 299 300 299 298 297 297 298 299 300 298 298 298 298 300 300 299 296 295 295 295 295 295
299 299 299 300 300 300 300 300 300 301 300 299 299 298 298 298 298 297 296 296 296 297 299 300 299 298 298 299 299 299 299 299 299 300 299 299 299 300 300 299 299 298 298 298 298 299 300 300 300 301 300 300 299 299 299 299 300 302 303 304 304 303 302 302 301 300 299 299 299 300 299 299 299 298 299 299 299 300 299 300 300 299 301 300 298 299 299 300 299 298 297 297 297 298 298 298 298 297 296 296 296 296 296
299 299 299 299 299 299 300 300 299 299 299 299 298 298 297 297 297 296 296 296 296 297 298 298 298 298 298 299 299 299 299 299 300 300 300 300 300 299 299 299 299 299 299 300 300 299 300 300 302 302 301 300 300 300 299 299 300 301 302 302 303 303 303 302 302 300 299 299 300 300 299 299 298 298 298 299 299 299 299 299 300 302 301 299 298 298 297 297 298 298 297 296 296 297 297 297 297 297 296 296 296 295 296
298 298 298 298 299 299 299 299 299 298 298 297 297 297 297 297 297 297 297 297 296 297 297 297 297 297 297 298 299 299 299 300 301 300 300 300 300 299 299 299 300 299 299 300 300 300 298 299 300 300 300 299 299 298 298 298 298 298 300 301 302 303 303 303 302 300 300 300 300 300 299 299 298 298 299 299 299 299 299 298 299 301 300 299 298 298 297 297 297 298 298 298 297 297 296 296 295 295 295 295 295 295 295
297 297 298 298 298 298 299 299 299 298 297 297 298 298 297 297 297 298 298 297 297 297 297 296 297 297 297 297 298 298 298 301 303 302 300 300 300 301 299 299 299 299 299 299 299 300 299 298 298 298 298 298 298 298 298 298 298 297 298 299 301 302 302 303 302 301 300 300 300 300 300 299 299 298 298 299 298 299 299 298 297 298 299 298 298 297 297 296 296 297 298 298 298 298 297 295 294 294 293 292 293 294 295
296 296 297 298 298 298 298 298 298 297 297 297 298 298 298 298 298 298 298 298 298 298 298 297 297 297 297 297 297 298 299 301 303 302 300 300 301 300 299 298 298 298 297 297 297 296 297 298 298 298 298 298 298 298 298 298 298 297 297 298 299 301 301 302 302 301 300 300 300 301 300 300 299 299 298 298 298 299 298 298 298 298 298 298 297 297 296 295 296 296 296 296 296 296 297 296 294 294 293 292 292 292 295
296 296 297 298 298 298 298 298 298 297 297 298 298 298 298 298 298 298 298 298 298 299 298 297 297 297 297 297 297 297 298 299 300 300 300 300 300 299 299 299 299 298 298 298 298 298 298 298 298 298 298 298 298 298 299 299 299 298 299 300 300 299 300 301 301 301 300 300 300 300 301 300 299 298 297 297 298 297 297 297 298 298 299 299 298 298 297 296 295 295 295 295 295 296 296 295 294 294 293 293 292 292 292
295 295 296 297 297 297 297 297 298 297 298 298 298 298 299 299 298 299 299 299 299 299 298 298 297 297 297 297 297 297 297 297 298 299 299 300 301 300 300 300 299 299 299 299 299 299 298 298 298 298 298 298 298 298 299 299 299 299 300 299 299 299 300 300 300 300 300 300 300 300 301 300 299 297 296 296 296 296 297 297 298 299 299 300 299 299 298 297 296 296 296 296 296 296 296 295 294 293 294 293 292 291 291
294 295 295 296 296 296 296 297 297 297 298 298 298 299 299 298 298 298 298 298 298 299 299 298 298 298 298 298 297 297 297 297 297 298 300 300 300 300 299 299 299 299 299 298 298 298 298 298 298 299 299 299 299 298 299 300 301 300 300 299 299 299 299 300 300 300 300 300 300 300 300 300 298 296 296 296 296 296 297 297 298 299 301 300 300 300 299 298 298 297 296 296 296 296 296 296 295 294 294 294 293 292 291
294 295 295 295 295 296 296 296 297 297 298 298 299 298 298 298 298 298 298 298 298 299 298 298 298 298 298 298 298 298 297 297 296 298 300 300 299 300 299 298 299 300 299 299 299 299 299 299 299 299 298 298 299 300 300 301 301 300 301 301 300 299 299 299 300 300 300 300 300 301 300 299 298 296 296 296 296 297 297 298 299 300 301 301 300 300 298 298 298 297 297 297 297 296 296 296 296 297 295 294 293 292 291
294 295 295 295 295 296 296 296 296 297 298 299 299 298 297 297 297 298 298 298 299 299 298 298 298 298 299 300 299 298 297 297 296 296 298 299 299 299 298 298 298 298 299 299 299 299 299 300 299 298 298 298 299 300 300 300 300 300 301 301 301 301 299 299 300 301 300 300 300 301 300 299 298 297 297 297 297 298 298 298 299 300 301 301 300 299 298 298 297 297 296 297 297 296 295 295 296 297 295 294 294 293 292
294 295 295 295 295 295 296 296 296 296 297 298 298 297 296 297 297 297 297 298 299 299 298 298 298 298 300 300 300 299 298 297 297 296 298 299 299 299 298 298 298 298 299 300 300 300 300 300 300 300 300 300 299 299 300 300 300 300 301 301 301 301 300 300 300 301 300 300 300 301 301 300 300 299 299 298 298 298 299 299 300 301 302 301 299 298 297 297 296 296 295 295 295 295 294 294 295 296 295 295 294 293 292
294 295 295 295 295 295 295 295 296 296 297 297 297 297 297 297 297 297 297 298 298 298 299 298 298 298 299 300 300 299 298 298 298 297 297 298 299 300 298 298 299 298 299 300 300 300 300 301 301 302 301 301 300 298 299 299 299 299 300 300 301 301 301 300 299 299 300 300 301 302 301 301 301 301 300 299 299 299 299 299 300 300 301 299 298 297 296 295 294 293 293 293 293 293 293 293 294 294 294 294 294 294 292
295 295 295 295 295 295 295 295 296 296 297 297 297 297 298 298 298 297 297 297 297 297 298 298 298 298 298 299 299 299 298 299 299 297 297 298 299 301 298 298 298 298 298 299 300 301 302 301 301 301 300 299 299 298 298 297 297 297 298 299 300 300 300 300 299 298 299 300 301 302 302 302 302 302 301 300 299 299 299 298 298 298 299 297 296 295 294 294 293 293 293 292 292 292 292 292 292 292 292 293 294 293 291
294 295 295 295 295 295 294 295 296 297 297 297 297 297 298 298 297 297 297 297 297 297 297 298 298 298 298 299 299 299 298 298 298 297 297 297 298 299 298 297 297 297 297 298 299 300 300 300 300 299 299 298 298 298 297 297 296 296 297 297 298 299 300 300 300 299 300 300 301 301 301 301 301 301 301 300 299 298 297 297 297 298 297 296 294 293 293 293 293 292 292 292 292 292 292 292 291 291 291 292 292 292 291
294 294 294 294 294 294 294 295 296 297 297 296 296 295 297 297 297 296 297 296 296 296 296 297 297 297 297 297 297 297 297 297 297 297 297 297 297 297 297 297 297 297 296 297 298 298 299 299 299 299 298 298 298 298 297 297 297 296 296 297 298 299 299 300 300 300 300 300 300 300 300 300 300 299 299 298 298 296 296 296 296 298 296 294 293 292 292 292 292 292 292 292 293 293 292 292 291 291 291 291 291 291 290
293 293 293 293 293 294 294 295 296 296 296 295 295 294 295 296 296 296 296 296 296 296 296 296 296 296 296 296 296 295 296 296 296 296 296 296 296 295 296 297 297 297 297 297 297 298 298 298 298 298 298 298 298 298 297 297 297 297 297 297 298 299 299 300 300 300 300 299 299 298 299 298 297 297 295 295 294 294 293 294 294 296 294 293 292 292 292 292 293 293 293 293 293 293 293 292 291 291 290 290 290 290 289
293 293 293 293 293 293 294 295 295 295 295 295 295 295 295 295 295 295 295 295 295 295 295 295 296 296 296 295 295 295 295 295 295 295 295 295 295 295 296 296 297 297 297 297 297 297 298 298 298 298 298 299 299 298 298 298 298 298 298 298 298 299 299 299 299 299 299 299 298 297 297 296 296 295 294 293 293 293 293 293 293 293 292 292 292 293 293 293 293 293 293 293 293 293 292 292 291 290 290 290 290 290 289
293 293 294 294 293 293 294 294 294 294 294 295 295 296 296 295 295 295 295 295 295 295 295 295 296 296 296 296 295 295 295 295 295 295 295 295 295 295 295 296 296 296 296 297 297 297 297 297 297 298 299 299 299 299 299 299 299 299 298 298 298 298 299 299 299 298 298 297 297 296 295 295 295 294 293 293 293 293 293 293 292 292 292 292 292 293 293 293 293 292 293 293 293 292 292 291 291 290 290 290 290 290 289
293 293 294 294 293 293 294 294 294 294 295 295 296 296 296 296 296 295 295 295 295 295 295 296 296 297 296 295 295 295 295 295 295 295 295 295 295 295 296 296 296 296 296 296 296 296 297 297 298 298 299 299 299 299 299 299 299 299 298 298 298 298 298 298 298 296 296 296 295 294 294 294 294 294 293 293 293 293 293 293 293 292 292 292 293 293 293 292 292 292 293 292 292 292 291 291 290 290 290 290 290 289 289
293 293 293 294 294 294 294 294 295 296 296 296 296 296 296 296 296 296 295 295 295 295 295 295 296 296 295 295 295 294 295 295 295 295 295 295 296 296 296 296 296 296 297 297 296 297 297 297 298 299 299 299 299 300 300 299 299 298 298 297 297 298 298 297 296 295 295 295 294 294 294 294 294 294 293 293 293 293 293 293 293 293 293 293 293 293 292 292 293 293 293 292 292 291 291 290 290 290 290 290 289 289 288
294 294 294 295 295 296 296 296 296 296 296 297 297 297 297 297 296 296 296 296 296 296 296 295 294 295 295 295 294 294 295 295 295 295 295 296 296 296 296 296 296 296 297 297 297 298 298 298 298 299 299 300 299 299 299 298 297 296 296 296 296 297 297 296 296 294 294 294 294 294 294 294 294 294 294 294 294 294 294 294 294 294 294 294 294 293 293 293 293 293 293 293 293 292 291 291 290 290 290 290 289 289 288
295 295 296 296 297 298 297 297 297 297 297 297 297 298 297 297 297 296 296 296 296 297 296 295 295 295 295 295 294 294 295 295 295 295 296 296 297 297 297 296 296 296 297 298 298 299 299 299 299 299 298 298 297 297 296 296 295 295 295 295 296 296 296 296 295 294 294 294 294 294 295 295 295 294 294 294 294 294 294 294 294 294 295 294 294 294 294 294 294 294 294 294 294 294 292 291 290 290 290 289 289 289 289
296 296 297 297 298 298 298 297 297 297 297 298 298 297 297 297 297 297 297 297 297 297 296 296 295 295 296 295 295 295 295 294 295 296 297 297 298 298 298 297 297 297 298 298 299 298 298 298 297 296 293 293 294 295 294 294 294 294 295 295 295 295 295 295 295 295 295 294 295 295 295 295 295 295 295 294 294 294 295 295 295 295 295 294 294 295 295 295 295 295 295 295 295 294 292 290 289 289 289 289 288 288 288
297 297 297 297 297 297 298 298 298 297 297 298 297 297 297 297 297 297 297 297 297 297 296 295 295 295 296 296 296 295 295 295 296 297 298 298 298 298 298 298 298 298 298 298 297 295 294 295 295 294 293 293 293 294 293 293 293 294 294 294 294 294 295 295 295 295 295 294 294 295 295 295 295 295 295 295 295 295 295 295 295 295 295 295 295 295 295 295 295 295 295 295 294 292 290 289 289 288 288 288 288 288 288
299 298 298 298 299 299 299 299 299 298 296 296 296 297 297 297 297 297 298 298 298 296 296 296 296 296 296 296 297 297 296 297 298 299 298 298 298 298 298 298 298 298 298 297 296 296 295 296 296 294 293 292 292 292 292 293 293 294 294 294 294 294 295 295 295 295 295 295 295 295 295 295 295 295 295 295 295 295 295 295 295 295 295 295 295 295 295 295 295 294 294 293 292 291 290 289 289 289 288 288 288 287 288
300 301 302 302 301 300 300 299 298 297 297 297 297 297 298 297 297 297 298 298 298 298 297 297 298 298 298 298 298 298 298 299 299 300 300 300 299 298 298 298 298 296 296 295 295 295 295 295 295 293 292 291 291 292 292 292 293 294 294 294 294 294 294 295 295 295 295 295 295 295 295 295 295 295 295 295 295 295 295 295 295 295 295 295 295 295 295 294 294 293 292 291 290 290 289 289 289 290 289 289 289 288 289
302 302 301 301 300 299 299 298 297 297 298 298 298 299 299 298 298 298 298 298 298 298 298 298 298 298 298 299 300 300 300 300 301 301 301 300 299 298 297 296 295 295 293 293 292 293 293 293 292 292 291 291 292 292 293 293 293 293 294 294 294 294 294 294 294 295 295 295 295 295 295 295 295 294 294 294 295 294 294 295 295 295 295 295 295 294 294 294 293 292 291 291 290 289 290 290 290 289 289 289 289 289 289
300 299 299 299 299 299 298 298 298 299 299 299 299 300 300 300 300 299 299 299 299 299 299 299 299 299 299 299 299 301 301 301 301 300 300 300 298 296 294 293 292 292 291 291 290 291 291 292 291 291 291 291 292 292 292 293 293 293 294 294 294 294 294 294 294 294 294 294 295 295 295 295 295 295 294 294 294 294 294 294 294 294 294 294 294 294 293 292 291 291 291 290 290 290 290 289 289 289 289 288 288 289 289
298 298 298 299 299 299 299 299 300 300 300 299 299 300 300 300 300 300 300 300 300 300 299 299 299 299 299 300 301 301 301 302 301 300 300 299 296 294 292 290 289 290 290 290 290 290 291 291 291 291 291 291 292 292 292 292 292 293 293 294 294 294 294 294 294 294 294 294 295 295 294 294 294 294 294 294 294 294 294 294 294 294 294 294 294 293 292 291 290 290 290 290 290 290 290 289 289 289 288 288 288 288 288
298 298 299 299 299 299 300 300 300 301 301 301 301 301 301 301 301 300 300 300 300 299 299 299 299 300 300 301 301 302 302 301 300 299 299 297 294 292 290 289 289 290 290 290 290 290 290 290 290 290 291 292 292 292 292 292 292 293 293 294 294 294 294 294 294 294 295 295 294 294 294 294 294 294 294 294 294 294 294 294 294 294 293 293 293 292 291 290 290 290 290 290 290 290 290 290 289 288 287 287 286 287 287
298 299 299 299 299 299 300 300 300 300 300 301 301 301 300 300 300 300 300 299 299 299 300 300 300 300 301 301 301 301 301 300 299 298 297 295 293 291 290 290 290 290 290 289 290 290 290 290 291 291 291 292 292 292 292 292 293 293 294 294 294 294 294 294 295 295 294 294 294 294 294 293 294 294 294 294 294 294 294 294 293 293 293 292 291 291 290 290 289 290 290 290 289 289 289 288 287 287 286 285 285 285 286
298 298 298 299 299 299 299 300 300 300 301 301 300 300 300 300 300 300 299 299 299 300 300 299 300 300 301 301 300 300 299 299 298 297 295 293 291 290 290 289 289 289 289 289 289 290 290 290 290 291 291 291 292 292 292 293 293 293 293 294 294 294 294 294 294 294 294 294 294 294 294 294 294 294 294 294 294 294 293 293 293 293 292 291 290 290 289 289 288 288 288 288 287 287 286 286 285 285 284 284 284 285 285
298 297 298 298 299 300 300 300 301 301 301 301 301 301 301 300 300 300 300 300 300 300 300 300 300 300 300 299 299 298 298 298 297 296 293 291 290 289 289 289 289 289 288 289 289 289 289 289 290 290 291 292 292 292 293 293 293 293 293 294 294 294 294 294 293 294 294 294 294 294 294 294 294 294 294 294 294 293 293 292 292 291 290 289 289 288 288 287 287 286 286 285 285 285 285 284 284 284 283 283 283 283 283
297 298 298 299 299 300 301 301 301 302 302 301 301 301 301 300 300 300 300 300 300 299 300 300 299 299 298 298 297 297 297 297 295 293 291 290 290 289 289 289 288 288 288 288 288 288 288 288 289 290 291 292 292 292 293 293 293 293 293 293 293 293 293 293 293 293 294 294 294 294 294 294 294 294 294 293 293 292 291 290 289 288 288 288 287 287 286 286 285 285 284 284 284 284 284 284 284 283 283 283 283 283 283
298 299 299 300 300 301 301 301 301 301 301 301 301 300 300 299 299 299 299 299 299 299 299 299 298 297 297 297 297 297 297 295 292 290 290 290 289 289 288 288 287 287 287 287 287 287 288 288 289 290 291 291 292 292 292 293 293 293 293 293 293 293 293 293 293 294 294 294 294 294 294 294 294 293 292 291 290 289 288 287 287 286 286 286 286 285 285 285 285 285 285 284 284 284 284 284 284 283 283 283 282 282 282
299 300 300 301 301 301 300 300 300 301 300 301 300 300 299 299 299 299 299 299 299 299 299 298 297 296 296 296 296 296 295 293 290 289 289 289 288 288 287 287 287 286 286 286 287 287 288 288 289 290 290 291 291 291 292 292 292 292 292 292 292 292 292 292 293 294 294 294 294 294 294 293 292 291 290 288 287 287 286 286 286 286 286 286 286 286 286 286 285 285 285 285 285 284 284 284 283 283 283 282 282 282 282
300 301 301 301 301 301 301 300 300 300 300 300 300 299 299 299 299 298 299 299 299 299 297 296 295 295 295 295 295 295 293 291 289 288 288 288 287 287 287 286 286 286 286 286 286 287 288 289 289 289 290 291 291 290 290 290 290 290 290 290 290 291 291 292 293 293 293 293 293 293 291 290 289 288 287 287 286 286 286 286 286 286 286 286 287 287 286 286 286 286 285 285 285 284 284 284 283 283 283 282 282 282 282
301 301 301 301 301 300 300 300 300 300 300 299 299 298 298 298 298 298 298 298 298 297 296 294 294 294 293 294 294 294 291 290 288 288 287 287 287 287 286 286 286 285 285 286 287 288 288 289 289 289 290 290 290 289 288 288 288 288 288 289 290 290 291 291 292 292 292 291 290 289 288 288 287 287 287 287 287 287 287 287 287 287 287 287 287 287 287 287 287 286 286 285 285 284 284 283 283 283 283 283 283 283 283
300 301 300 300 300 300 300 300 300 299 299 298 298 298 298 298 298 298 298 298 297 296 294 293 292 292 292 293 293 291 289 288 288 287 287 286 286 286 286 285 285 285 286 286 287 287 288 289 289 289 289 289 288 287 287 287 287 287 288 289 290 291 291 291 291 290 289 288 287 287 287 287 287 287 287 287 287 287 288 288 288 288 288 288 288 288 287 287 287 286 286 285 285 284 284 283 283 283 283 284 284 284 284
300 299 299 299 299 299 299 299 299 298 298 298 298 298 298 298 298 298 297 297 296 294 292 291 291 291 291 291 291 289 287 287 286 286 286 286 286 286 285 285 285 286 286 286 287 288 288 288 288 288 288 287 287 286 286 287 287 288 290 291 291 291 291 290 289 288 287 287 287 287 287 287 287 287 288 288 288 288 288 288 288 288 288 288 288 287 287 287 286 286 285 285 285 284 284 284 284 284 284 284 284 284 284
299 299 299 298 299 298 298 298 298 298 297 297 297 298 298 298 298 298 297 296 294 292 290 290 290 290 290 290 289 287 286 286 286 285 285 285 285 285 285 285 285 286 286 287 287 288 288 287 287 287 286 286 286 286 286 287 288 290 291 291 291 290 289 288 287 286 286 286 287 287 287 287 287 288 288 288 288 288 288 288 288 288 288 287 287 286 286 286 285 285 285 285 284 284 284 284 284 284 284 284 284 284 284
298 298 298 298 298 297 297 297 297 297 297 297 298 298 298 298 298 297 296 294 292 290 289 289 289 288 288 288 288 286 285 285 285 285 285 285 285 285 285 285 286 286 287 287 287 287 286 286 286 286 285 285 285 286 287 289 289 290 290 289 289 287 287 287 287 287 287 286 287 287 287 287 287 288 288 288 288 288 288 288 287 287 287 286 286 286 285 285 285 285 285 285 285 284 284 284 284 284 284 284 284 284 284
298 298 298 297 297 296 296 296 297 297 297 297 298 299 299 298 297 296 294 293 291 289 289 288 288 287 287 287 286 285 285 285 285 286 286 286 286 285 285 286 286 286 287 286 286 286 286 286 286 286 285 286 286 287 289 289 290 289 289 288 288 287 287 287 287 287 287 287 287 287 287 288 288 288 288 288 288 287 287 287 286 286 286 285 285 285 285 285 285 285 285 285 285 285 284 284 284 284 284 284 284 284 284
298 297 297 296 296 296 296 296 296 297 297 297 298 298 298 298 296 295 293 291 290 289 288 288 286 285 286 286 286 285 285 285 285 286 286 286 286 285 286 286 286 286 286 286 286 287 287 287 287 287 287 288 288 289 289 289 289 289 289 289 288 288 288 288 288 287 287 287 287 287 288 288 287 287 287 287 287 287 286 286 286 286 285 285 285 284 285 285 285 285 285 284 284 284 284 284 284 284 284 283 283 283 283
297 296 296 296 296 296 296 296 296 296 297 297 298 298 297 296 295 293 291 291 290 289 288 287 285 284 285 285 285 284 285 285 285 286 286 286 286 286 286 286 286 287 287 287 288 289 289 289 289 289 289 289 290 290 290 290 290 289 289 289 289 288 288 288 287 287 287 287 287 287 287 287 287 286 286 286 285 285 285 285 285 285 284 284 284 285 284 284 284 284 284 284 284 284 283 283 283 283 283 283 282 282 282
296 296 296 296 296 296 296 296 296 297 297 297 297 297 296 295 293 292 291 290 290 289 288 286 285 284 284 285 285 285 285 285 286 286 286 286 286 287 287 287 288 288 289 290 290 291 291 290 290 290 290 290 290 290 291 291 290 290 290 289 289 288 287 287 287 287 287 287 287 287 287 286 286 286 285 285 285 284 284 284 284 284 284 284 284 285 285 285 285 284 284 283 283 283 283 282 282 282 282 282 281 281 280
296 296 296 295 295 296 295 296 296 297 297 297 297 296 295 293 292 291 291 290 290 289 288 286 285 284 285 284 284 285 286 286 286 286 287 287 287 288 288 289 290 290 291 291 292 292 291 291 291 291 291 291 291 291 291 291 291 290 290 289 288 287 287 287 287 287 287 287 287 287 286 286 286 285 285 285 284 284 284 283 283 283 283 284 284 285 287 288 288 287 286 284 283 282 282 282 281 281 280 280 280 280 279
296 296 296 296 295 295 295 295 296 296 297 297 297 295 293 292 291 291 290 290 289 288 287 286 284 284 285 285 284 285 286 286 286 286 288 288 289 289 289 290 291 291 291 292 292 292 291 291 291 291 291 291 291 292 291 291 291 290 289 288 287 287 287 286 287 287 287 287 287 287 286 285 285 285 284 284 284 283 283 282 282 282 283 283 284 285 287 288 288 288 288 286 284 282 281 281 280 279 279 279 279 278 278
296 296 296 295 295 295 295 295 296 296 297 297 296 294 292 291 291 290 290 289 288 288 287 285 285 285 285 285 285 285 286 286 286 287 288 289 289 289 290 290 290 290 291 291 291 292 292 292 292 292 292 292 292 292 291 291 290 290 289 287 287 286 286 286 287 287 287 287 287 286 285 285 284 284 284 283 283 282 282 281 281 281 281 282 283 286 287 287 288 288 288 288 286 283 281 280 279 278 278 278 277 277 277
296 296 295 295 295 295 295 295 296 296 297 296 295 293 291 291 290 290 289 289 288 288 287 286 285 286 285 285 285 286 285 286 286 287 288 288 288 288 289 290 290 290 291 291 291 292 292 292 292 292 292 292 291 291 291 290 290 289 288 287 287 286 287 287 288 288 288 287 286 285 285 284 283 283 283 282 282 281 281 280 280 280 280 281 283 285 287 287 288 288 288 288 287 284 281 279 278 277 277 277 277 277 277
296 296 295 295 295 295 295 296 296 297 297 295 293 291 291 290 290 290 289 289 289 289 287 287 286 285 284 285 285 286 285 285 286 286 286 286 287 287 288 289 290 291 291 292 292 292 292 292 292 292 291 291 290 290 290 289 289 288 288 287 287 288 288 288 288 288 288 287 286 285 284 283 283 282 282 282 281 280 280 279 279 279 278 280 282 285 286 287 287 288 288 288 288 287 282 279 278 277 277 277 277 278 278
296 296 296 296 296 296 296 296 296 296 295 293 291 290 290 290 290 290 290 289 289 288 288 288 287 286 285 285 285 286 285 285 285 284 284 285 286 287 288 289 290 291 292 292 291 291 291 291 290 290 290 289 289 289 289 289 288 287 288 288 289 289 289 289 289 288 287 285 284 283 283 283 282 282 281 281 280 279 279 278 278 278 278 279 282 285 286 286 287 287 288 288 288 287 283 280 278 277 277 277 278 279 279
297 296 296 297 296 296 297 297 296 295 293 292 291 291 291 291 291 291 291 290 289 288 288 288 287 287 286 286 286 286 285 285 284 284 284 285 286 286 287 288 289 290 290 290 289 288 289 289 288 288 289 289 289 289 289 288 288 288 288 289 290 290 289 289 288 286 285 284 283 283 283 282 281 281 280 279 279 278 278 277 277 277 277 279 281 284 285 286 287 287 287 288 287 287 284 280 278 278 277 278 279 279 279
298 297 297 297 297 297 296 296 294 293 292 291 291 291 291 291 291 291 290 289 288 288 287 287 287 287 287 286 286 286 285 284 284 284 284 284 285 285 285 286 287 287 287 286 286 286 286 287 287 288 288 289 288 288 288 288 288 289 289 290 290 289 289 287 286 284 283 283 282 281 281 280 280 279 279 278 278 277 277 277 277 277 277 278 280 284 285 286 287 287 287 287 287 286 284 281 279 278 278 279 279 279 279
298 298 298 297 297 296 295 293 292 291 290 290 290 290 290 291 291 291 290 289 288 287 287 287 287 287 286 286 286 285 285 284 284 284 284 284 284 284 284 284 285 285 285 285 285 285 285 286 286 287 288 288 288 288 289 289 289 289 289 289 289 288 287 285 284 283 282 281 280 279 279 279 279 278 278 277 277 277 277 276 277 277 277 278 281 284 285 286 286 286 286 286 286 286 284 281 279 278 279 279 279 279 279
299 299 298 297 296 295 293 292 291 290 290 290 290 290 290 291 291 290 289 288 288 288 287 287 287 287 286 286 285 285 285 285 285 284 284 283 284 283 283 283 283 283 284 284 284 285 285 286 286 287 288 288 288 289 289 289 289 288 288 288 287 286 283 282 281 280 280 279 279 279 278 278 278 277 277 277 276 276 276 276 276 276 276 278 282 284 285 286 286 286 286 285 285 285 283 280 279 278 279 279 279 279 279
Wind_Speed
1 3 5 6 7 7 8 8 8 7 6 6 5 5 6 6 5 4 4 4 4 3 2 2 1 2 1 1 1 2 2 2 2 2 2 2 2 2 2 1 1 1 0 1 2 2 2 2 2 2 3 3 3 4 5 5 6 6 6 6 6 5 4 4 4 3 3 3 3 3 3 3 3 3 3 3 2 2 2 2 3 3 3 3 3 3 3 3 3 2 2 2 2 2 2 1 0 1 1 1 1 1 0
2 4 5 6 7 8 8 8 8 7 6 5 4 3 5 5 5 4 4 4 4 4 4 4 3 3 2 2 2 2 2 1 1 1 1 2 1 1 1 1 1 1 2 2 2 2 2 2 2 2 2 3 3 4 5 6 7 7 7 7 6 6 6 5 5 4 4 4 4 4 3 3 3 2 3 3 3 2 2 2 3 3 4 4 4 4 4 4 3 3 2 2 2 2 2 2 2 1 1 1 1 0 0
4 4 5 6 7 7 8 8 7 7 6 4 2 1 3 4 5 4 4 3 4 4 5 5 5 4 3 2 2 3 3 3 2 2 2 3 3 3 2 2 2 3 3 3 3 3 3 3 2 3 3 3 4 5 6 6 7 8 8 7 7 7 7 6 6 5 5 5 5 5 4 4 3 2 2 3 3 3 3 3 3 3 4 4 4 4 3 3 3 3 2 2 2 2 1 1 2 2 1 1 1 1 0
3 4 5 5 6 6 7 7 7 7 7 5 3 2 3 4 5 4 4 3 3 4 5 6 5 4 3 3 3 4 4 4 3 2 2 3 3 3 4 4 3 3 3 3 3 4 4 4 4 4 4 4 4 5 6 7 8 8 8 8 7 8 8 8 7 7 6 6 6 5 5 4 4 4 3 3 4 4 4 4 4 4 4 3 2 2 3 3 3 3 3 2 2 2 1 0 1 2 2 1 1 1 0
3 3 3 4 4 5 6 6 6 6 6 6 5 4 3 4 4 4 3 4 4 4 5 5 4 4 4 4 4 4 4 4 4 3 3 3 3 3 3 4 4 4 4 4 3 3 4 4 5 5 5 5 4 5 5 6 7 8 8 8 8 9 9 8 7 8 8 7 7 6 5 5 5 5 4 4 4 4 4 5 5 5 4 3 2 2 2 2 2 2 3 3 2 2 1 1 0 0 1 1 1 1 1
1 1 2 2 3 3 4 5 5 4 3 3 4 4 3 3 3 4 4 4 4 5 4 4 4 4 4 4 5 5 5 5 5 4 5 4 4 4 4 4 4 5 4 4 4 3 4 4 4 4 4 4 3 4 4 5 6 8 9 9 9 9 10 9 8 8 9 9 8 6 6 6 6 5 5 4 4 3 4 4 4 4 4 4 3 2 2 1 1 1 2 2 2 2 2 2 1 1 1 1 1 1 1
1 1 0 1 1 2 3 4 4 3 3 3 3 3 3 3 3 4 4 4 4 4 4 4 4 4 4 5 5 5 5 7 8 7 6 6 5 6 5 4 4 4 3 3 3 4 2 1 1 2 2 2 2 3 4 5 6 7 7 8 8 10 10 10 9 9 10 9 8 7 7 7 7 7 6 5 4 3 4 4 3 3 4 4 4 3 2 2 2 1 2 2 2 2 2 3 3 1 1 1 2 2 0
2 2 1 1 2 3 4 5 4 3 4 4 4 4 4 4 5 5 5 5 5 5 5 6 6 6 6 6 6 6 6 7 8 7 6 5 4 3 3 2 1 1 0 1 1 0 1 1 1 1 2 2 3 4 4 5 5 4 5 7 9 10 11 11 11 10 11 10 9 8 8 8 8 8 6 5 4 4 5 4 3 3 3 3 4 4 3 3 3 3 3 3 3 3 2 3 3 3 1 0 1 2 1
1 1 2 3 3 4 4 4 3 3 4 5 5 5 6 7 7 6 6 6 6 6 5 5 5 6 6 6 7 6 6 7 7 6 5 4 3 2 2 1 1 1 2 2 2 2 2 1 1 1 2 3 3 4 4 5 5 4 5 7 9 11 11 12 11 11 11 11 10 9 9 9 8 7 7 6 5 5 5 5 5 3 3 3 3 3 3 3 3 2 3 3 4 4 3 2 2 3 2 1 0 2 2
3 3 3 4 4 3 3 2 2 4 4 5 6 6 7 7 7 7 7 6 6 5 5 4 4 5 5 5 5 5 6 7 7 7 5 4 4 4 3 3 2 2 2 2 2 3 3 2 2 3 4 4 4 3 4 4 5 5 6 7 9 11 12 12 12 11 11 11 11 10 9 8 8 8 7 7 6 5 5 5 5 4 3 3 3 3 3 2 2 2 2 2 3 3 3 3 2 2 2 2 2 1 1
2 3 3 3 2 2 2 2 3 5 5 6 6 7 6 6 5 5 5 5 5 4 4 4 5 5 5 5 5 5 6 6 7 7 6 5 5 5 5 4 4 4 4 4 4 4 4 4 4 4 4 5 5 4 5 5 5 5 5 6 7 10 12 12 12 11 11 11 11 10 9 8 8 8 7 7 7 6 5 5 5 4 4 4 3 3 3 3 2 3 3 3 3 3 3 3 3 2 2 2 3 2 1
1 3 3 3 3 3 4 4 5 6 6 6 7 7 5 4 3 3 3 4 4 4 4 4 5 5 5 5 5 5 6 6 6 7 5 5 5 5 5 6 6 6 5 5 5 5 4 4 4 4 4 5 5 5 5 5 5 5 6 6 6 8 11 12 12 10 11 11 11 11 10 9 8 8 7 8 8 7 6 5 5 4 4 4 4 3 3 3 3 3 3 3 3 3 3 3 3 3 3 3 3 2 1
2 4 4 4 5 5 6 6 6 6 6 7 7 5 3 3 3 4 4 4 4 4 5 5 5 5 6 6 6 5 6 6 6 6 6 5 5 5 5 6 7 7 6 6 6 5 5 5 5 5 5 5 5 5 5 5 5 6 6 6 6 7 9 11 12 10 11 11 11 12 11 10 9 8 8 8 8 7 7 6 5 5 5 4 4 4 4 3 3 3 3 3 3 4 3 3 3 3 3 3 3 2 1
3 4 5 5 6 7 7 6 6 6 7 6 4 2 2 3 4 5 5 5 6 6 6 6 6 6 6 6 6 6 6 6 5 5 6 6 5 5 6 6 7 7 7 6 6 5 6 6 7 7 6 6 5 5 5 5 6 6 6 6 6 6 7 9 11 11 11 11 12 12 12 11 10 9 8 8 8 7 6 6 6 5 5 4 4 4 4 4 4 4 3 3 3 4 4 3 2 2 3 3 3 2 1
5 5 5 6 6 6 5 5 5 6 5 4 3 3 4 5 6 6 7 7 7 7 6 6 6 5 5 6 6 6 6 6 6 5 6 6 6 6 6 6 6 6 6 6 6 6 7 7 7 7 6 6 6 5 5 6 6 6 5 6 6 6 6 7 9 10 11 11 12 11 12 12 12 10 9 9 9 7 6 6 6 5 5 4 4 4 4 4 4 4 4 3 3 3 3 3 3 2 3 3 3 2 2
6 6 6 6 5 5 4 4 5 4 4 4 5 5 7 7 7 7 7 7 7 6 5 5 5 5 5 6 6 6 6 7 7 6 6 7 7 7 6 5 5 5 6 6 6 6 7 7 6 6 6 6 6 5 5 6 6 6 6 6 6 6 6 6 7 8 9 11 12 11 12 12 12 11 10 9 9 8 7 7 7 5 5 4 4 5 5 5 5 6 5 5 4 3 3 3 3 3 2 2 2 2 1
5 5 6 5 4 4 4 4 4 4 5 5 5 5 6 6 6 5 6 5 5 5 4 4 4 5 6 6 6 6 6 6 6 6 6 7 7 6 6 5 5 6 7 7 7 6 6 6 5 5 5 6 6 5 5 6 7 7 6 6 6 6 6 6 6 6 7 8 10 10 11 11 11 10 9 8 7 7 7 6 5 5 4 4 5 6 6 6 5 5 5 5 4 4 3 3 4 4 3 2 2 2 1
4 5 4 4 3 3 3 3 3 4 4 3 2 2 3 3 4 4 4 4 4 4 4 4 5 6 6 6 6 5 6 6 6 7 7 7 7 6 5 5 6 7 8 8 7 7 7 6 6 5 5 6 6 5 5 6 6 7 6 6 6 6 6 5 5 5 5 6 7 7 8 8 8 7 6 6 6 6 5 4 4 5 4 4 4 5 5 4 4 4 4 4 4 4 4 4 4 4 3 2 2 2 2
4 4 4 3 3 2 2 3 3 3 2 1 1 1 0 1 2 3 3 3 3 4 4 4 5 6 5 5 5 5 5 5 5 6 7 6 6 5 5 5 6 6 7 7 8 8 8 7 7 6 7 7 6 6 6 6 6 7 7 6 6 6 5 5 5 4 4 4 4 4 5 5 5 5 5 5 6 6 5 5 5 5 5 5 4 4 4 3 3 3 3 4 4 4 5 4 4 3 3 2 3 3 3
3 3 3 3 3 2 1 1 2 1 1 1 2 2 1 1 2 1 2 2 3 3 3 4 4 5 4 4 4 4 3 3 3 3 4 4 4 4 4 5 5 6 6 7 7 7 7 7 7 7 7 7 7 6 7 7 7 7 7 6 6 5 5 4 3 3 3 3 3 3 4 5 5 5 5 6 7 6 5 5 5 5 5 4 4 4 4 5 5 5 4 4 4 4 4 4 3 3 3 3 3 3 3
3 3 3 3 3 2 1 1 1 2 2 2 2 2 2 2 2 2 2 2 2 2 2 3 3 4 4 4 3 2 2 1 1 2 2 2 2 3 4 4 5 5 6 6 6 6 6 6 6 7 7 7 7 6 6 6 7 7 6 6 5 5 4 3 3 3 3 3 3 3 4 5 5 5 5 6 6 6 5 5 5 5 5 5 5 6 7 7 7 6 5 4 4 4 4 3 3 3 3 3 3 3 3
3 3 2 2 2 1 1 2 2 3 3 3 2 2 3 3 3 3 3 2 2 1 1 0 1 3 4 4 3 3 2 2 1 2 2 2 2 3 4 4 4 5 6 6 5 5 5 6 6 6 6 6 6 5 5 5 6 7 7 6 6 5 4 3 3 3 3 3 4 4 6 6 6 5 5 6 6 6 5 5 5 5 6 7 7 7 8 9 8 6 5 4 4 4 3 3 3 4 3 4 3 3 3
2 2 2 1 1 1 1 1 2 2 2 2 2 2 3 3 3 3 3 3 2 2 2 1 1 3 4 4 4 3 3 3 2 2 3 3 3 4 4 4 4 5 5 5 5 5 5 6 6 5 6 6 6 5 5 5 5 6 6 6 6 5 4 3 4 3 4 4 4 5 7 7 7 6 6 7 7 7 7 7 6 7 7 8 8 8 8 8 7 6 5 4 4 3 3 3 4 4 4 4 4 3 4
2 1 1 1 1 1 1 1 1 1 1 1 2 2 3 3 3 3 3 2 1 1 1 1 1 2 4 4 4 4 4 4 3 3 4 4 4 5 5 5 5 6 6 6 5 5 6 6 5 5 5 5 5 5 5 5 4 5 4 4 3 2 3 4 4 5 5 5 5 6 7 8 8 8 9 9 9 8 8 8 8 8 8 8 7 7 6 6 6 5 4 4 4 4 4 5 5 4 4 4 3 3 4
1 1 1 1 1 1 1 1 1 0 0 1 2 2 3 3 3 3 2 2 1 0 1 2 2 3 4 5 5 5 4 4 4 3 4 5 5 6 7 7 7 7 7 6 6 6 6 6 5 5 4 4 4 4 4 4 3 3 2 1 2 3 4 4 5 5 6 6 6 7 9 9 10 10 10 9 9 8 8 8 8 8 7 7 6 5 5 4 4 4 4 4 4 4 5 5 4 4 4 4 3 3 4
1 1 1 1 1 1 1 1 1 1 1 1 2 3 3 3 3 3 2 1 2 3 3 3 3 4 4 5 5 5 4 4 4 4 5 6 6 6 7 7 7 8 8 8 7 6 5 5 4 3 3 3 3 3 2 2 2 2 3 3 4 4 5 6 6 6 6 6 7 9 10 10 10 10 10 9 9 8 8 7 7 6 6 5 4 4 3 3 3 3 3 3 3 3 4 5 4 4 4 3 3 3 3
2 2 2 2 2 1 1 0 0 1 1 1 2 3 3 3 2 1 2 4 5 6 5 4 4 4 4 4 5 5 5 5 5 6 6 6 7 6 7 7 8 8 9 9 8 6 5 4 3 2 1 1 1 0 0 1 2 3 4 5 5 5 6 6 7 6 7 7 8 10 10 9 9 9 9 9 8 8 7 6 6 5 4 3 3 2 2 3 3 3 3 3 3 4 5 5 5 4 3 3 3 4 3
2 3 3 4 3 2 1 1 1 0 0 1 2 3 3 4 4 4 5 6 7 6 6 6 5 4 4 5 5 5 6 6 6 7 7 7 7 7 7 8 8 9 8 7 6 5 5 4 3 2 1 2 2 2 3 3 4 4 5 5 6 6 7 7 7 7 7 8 9 9 9 9 9 9 8 8 7 6 6 5 5 4 3 2 2 2 2 3 3 3 3 4 4 5 5 5 5 4 3 3 4 4 3
4 5 4 4 3 2 2 1 2 2 3 4 5 6 6 6 6 6 6 6 6 6 7 7 6 6 6 6 7 8 8 8 8 9 9 9 8 8 8 8 8 8 7 6 5 4 4 4 2 1 2 2 3 4 4 5 5 5 6 6 7 7 8 7 7 7 7 8 8 9 9 9 8 8 8 7 6 6 5 5 4 3 3 2 2 2 3 3 4 5 5 5 5 6 6 5 5 4 4 3 3 4 3
5 5 4 4 3 2 2 3 3 5 6 7 8 8 8 8 7 5 5 5 5 5 6 6 6 7 7 7 8 9 9 10 10 10 10 10 9 8 7 7 7 7 5 4 3 2 2 2 2 3 3 3 4 4 5 5 6 6 6 6 7 7 7 7 7 8 7 7 8 8 9 9 8 7 7 6 6 6 5 4 3 3 2 2 3 3 4 5 6 7 5 5 5 5 5 4 5 5 4 4 4 4 3
6 5 4 4 3 3 4 5 6 8 9 9 9 9 8 7 6 5 4 5 5 5 5 5 6 7 7 7 8 9 9 10 10 10 9 9 8 6 5 4 4 4 4 3 3 2 3 3 4 4 5 5 5 5 6 7 6 5 6 7 7 7 7 8 8 9 8 8 8 8 8 8 7 7 6 6 5 4 3 2 2 2 2 3 3 4 6 7 8 8 5 5 4 4 4 5 5 5 5 4 4 4 4
4 4 4 5 5 6 7 8 8 9 8 8 7 7 7 6 5 5 6 6 7 6 5 5 5 6 6 7 7 8 8 8 9 9 9 8 6 3 2 2 2 2 2 3 3 4 4 5 5 5 6 6 6 7 9 9 8 7 8 8 8 7 7 7 7 7 7 7 7 8 7 7 6 6 5 4 3 2 1 1 2 2 3 4 5 6 8 8 8 7 5 5 4 4 4 4 5 5 4 4 5 5 4
4 4 5 6 7 8 9 9 9 9 9 8 8 8 7 6 6 7 7 8 7 7 6 6 6 6 6 7 8 9 9 9 9 9 9 7 4 1 2 2 2 2 3 4 5 5 5 6 7 7 7 7 7 7 8 9 9 9 9 9 8 7 7 6 6 5 7 7 8 7 7 6 5 4 4 3 2 1 1 1 3 4 6 7 8 9 10 9 8 6 5 4 4 4 4 4 4 4 4 4 5 5 5
5 6 7 8 8 9 9 8 8 8 7 7 7 7 7 7 7 7 8 7 7 6 7 7 7 7 8 9 9 9 10 10 9 8 7 5 2 1 2 3 3 3 4 5 6 6 6 7 7 8 8 8 8 8 8 9 9 10 10 9 8 7 6 5 5 5 6 7 8 7 6 5 4 4 3 3 2 2 3 4 6 7 9 10 10 10 10 9 7 5 4 4 4 4 4 4 4 4 4 4 5 5 4
7 8 8 8 8 8 7 7 6 6 6 6 6 6 7 7 7 7 7 7 7 7 7 7 7 7 8 8 8 9 9 9 8 7 5 3 1 1 3 3 3 3 4 4 5 6 7 7 7 7 8 9 9 9 9 9 9 9 9 8 7 6 5 5 5 5 6 6 7 6 5 4 4 3 3 3 3 5 7 8 9 10 10 10 9 8 7 6 6 4 4 4 4 3 4 4 4 4 4 4 4 4 4
8 8 8 8 7 6 6 6 6 6 7 7 7 8 8 7 7 7 7 7 8 8 8 7 7 7 7 7 8 8 8 8 7 6 4 2 1 2 3 4 4 4 4 4 5 6 6 6 6 6 7 8 8 8 9 9 9 8 8 7 6 5 5 5 5 4 5 5 5 5 4 4 3 3 4 5 7 8 9 10 10 9 8 8 7 6 5 4 4 3 4 4 4 4 4 4 4 4 4 5 5 4 4
8 8 7 7 6 6 6 7 7 8 8 9 9 8 8 8 7 8 8 8 8 8 7 7 7 6 6 7 8 8 9 8 6 5 3 2 2 3 4 5 5 5 5 5 5 6 5 5 5 6 6 6 7 7 7 7 7 7 7 7 6 6 6 5 4 4 4 4 4 4 3 3 3 5 7 8 8 9 9 8 8 7 7 7 7 6 4 3 3 3 4 4 5 4 4 4 4 4 4 5 5 5 5
7 7 7 6 6 6 6 7 7 8 8 8 8 8 7 7 8 8 9 8 8 7 7 6 6 6 7 7 8 8 8 6 4 3 2 2 3 4 5 5 5 4 4 4 4 4 5 5 5 6 5 5 5 6 6 6 6 6 6 6 6 6 5 4 3 3 3 3 3 3 3 4 6 7 8 8 7 7 7 6 6 6 6 6 6 5 4 3 3 4 5 5 5 5 4 4 4 4 4 5 5 6 6
6 6 6 6 6 5 6 6 7 7 7 7 7 8 8 8 8 8 8 7 7 6 6 6 6 6 7 7 8 7 7 5 3 2 3 4 4 4 5 5 5 4 4 3 3 4 5 5 5 5 4 4 5 5 5 5 5 5 5 5 5 5 5 4 3 2 2 1 2 4 5 7 7 7 7 6 6 5 5 5 5 5 5 5 5 4 4 4 4 4 5 5 5 6 5 5 5 4 5 5 6 6 7
6 6 5 5 6 6 7 7 8 8 8 8 8 8 8 8 8 8 7 7 6 6 5 5 5 6 6 7 7 7 6 4 2 3 4 5 5 5 4 4 4 4 3 3 3 3 4 4 4 4 4 4 4 5 4 4 4 4 4 4 4 5 4 3 3 2 2 3 5 7 7 7 7 6 5 4 4 4 4 4 4 4 5 5 4 4 4 4 4 5 5 5 5 5 6 5 5 5 5 6 6 7 7
6 5 6 6 7 8 8 8 8 8 8 8 8 7 7 8 7 7 7 7 6 5 5 5 5 6 6 6 6 6 5 3 2 3 4 5 5 5 4 3 3 3 3 2 2 3 3 3 3 3 3 3 3 3 3 3 3 3 3 3 4 4 3 2 2 3 4 5 6 6 6 5 4 4 3 4 4 4 4 4 4 5 5 5 5 5 5 5 5 5 5 5 5 5 5 6 6 6 6 7 7 8 8
6 6 7 7 8 8 8 8 8 8 8 8 7 7 7 7 8 7 7 6 5 4 4 4 5 5 5 5 5 5 4 2 2 4 4 4 4 4 3 3 3 3 2 2 2 3 3 3 3 3 2 2 2 2 2 3 3 3 3 3 3 3 2 2 4 6 6 5 4 4 3 3 3 3 3 3 4 4 5 5 5 5 6 6 6 6 6 5 5 5 4 4 5 5 5 6 6 7 7 7 8 8 9
6 7 7 7 7 7 7 7 7 7 7 7 7 7 8 8 8 7 6 6 5 4 3 4 4 4 4 5 4 4 3 2 3 4 3 3 4 4 3 3 2 3 2 2 2 2 3 3 3 2 2 2 2 2 2 2 3 3 4 3 2 2 3 5 6 6 4 3 2 2 2 2 2 2 3 4 4 5 5 5 6 6 6 6 5 5 5 6 6 6 5 5 5 5 6 6 7 7 8 8 9 9 10
6 6 6 6 7 7 7 7 7 7 7 7 7 7 8 8 8 7 6 5 4 3 3 3 3 4 4 4 4 3 2 2 3 3 3 3 3 4 4 3 3 3 2 2 2 2 2 2 2 2 2 2 1 1 2 2 3 4 3 2 2 4 5 5 4 3 2 2 2 2 2 2 2 2 3 4 5 5 5 5 6 6 6 5 5 5 5 5 6 6 6 6 6 6 7 7 7 8 8 9 9 10 10
6 6 7 7 7 7 7 7 7 7 7 7 7 8 8 8 7 6 6 5 4 3 4 4 4 4 4 3 3 2 1 2 2 3 2 3 3 4 4 3 3 2 2 2 1 1 1 2 2 2 2 1 1 1 3 4 4 3 2 3 4 4 3 3 2 2 2 2 2 3 3 3 3 3 4 4 5 5 5 5 6 6 6 5 5 5 5 6 6 6 6 7 7 7 8 8 8 9 9 9 9 10 10
7 7 7 7 7 7 7 7 7 7 7 7 7 8 8 7 6 5 4 4 3 3 4 4 4 4 4 3 2 1 1 2 2 3 2 3 3 3 3 2 2 1 1 1 1 2 2 2 2 1 1 1 2 3 4 4 2 1 2 3 3 3 2 2 2 2 2 3 3 3 3 3 3 3 4 4 5 5 5 5 6 5 5 5 5 5 6 6 6 7 7 7 7 8 8 8 9 9 9 9 10 9 9
7 7 7 7 7 7 7 7 7 7 7 7 7 7 7 6 5 4 4 3 3 3 3 3 4 4 3 3 2 1 1 2 2 3 2 2 3 3 2 2 2 1 1 1 2 2 2 2 2 2 2 2 3 3 3 2 1 1 2 2 2 2 1 1 2 2 3 3 3 3 4 4 4 3 4 4 4 5 5 5 5 5 5 5 5 6 6 6 7 7 7 7 7 7 8 8 9 9 9 9 9 9 10
7 7 7 7 7 7 7 7 7 7 7 7 7 7 7 6 5 4 4 4 3 3 3 3 3 3 3 2 1 1 1 2 2 2 2 2 3 3 2 2 1 1 2 2 2 3 3 3 3 3 3 3 3 3 2 2 2 2 3 3 3 3 2 2 3 3 3 3 3 4 4 4 4 4 4 4 4 4 4 5 5 4 4 5 5 6 6 6 6 7 7 7 7 7 8 8 8 8 8 8 9 9 9
7 7 7 7 7 6 7 7 7 7 7 7 7 7 6 5 4 4 4 4 4 3 3 3 3 2 2 2 1 1 1 2 2 2 2 2 2 3 2 2 2 2 3 3 3 4 4 4 4 3 3 3 2 2 2 2 3 4 4 4 4 4 3 3 3 3 3 3 4 4 4 4 4 4 5 5 5 5 5 5 5 4 5 5 5 5 6 6 6 6 6 6 6 6 7 7 7 7 7 7 8 8 8
7 7 7 7 7 7 7 7 7 7 7 7 7 6 5 4 3 4 4 4 4 4 3 3 3 2 2 2 2 1 1 2 2 2 2 2 2 2 2 2 3 4 4 4 4 4 4 3 3 2 2 2 1 1 2 3 4 5 5 5 4 4 4 4 3 3 3 4 4 4 4 4 4 4 5 5 5 5 5 5 5 4 5 5 5 5 7 9 9 8 7 6 6 6 6 6 6 6 7 7 7 7 7
8 8 8 8 8 7 8 8 8 8 8 8 7 5 4 3 3 4 4 4 3 3 3 3 2 2 2 2 1 1 2 2 1 2 2 3 3 2 2 3 3 4 4 4 4 4 3 3 2 2 2 2 2 3 4 4 5 5 5 4 4 4 4 4 4 4 4 4 4 4 5 4 4 4 4 4 5 5 5 5 5 5 5 4 5 6 8 10 11 11 11 9 7 6 6 6 6 6 6 6 6 6 6
9 9 9 9 9 8 9 9 9 9 8 8 6 4 4 3 3 4 4 3 3 2 3 3 2 2 2 2 1 0 2 2 2 2 2 3 3 3 3 3 3 4 4 3 4 4 3 3 3 4 3 4 4 4 4 5 5 5 4 4 3 3 3 3 4 4 4 4 4 4 4 5 4 4 4 4 4 5 5 5 5 5 5 5 5 8 9 11 11 12 12 11 9 6 5 5 5 5 5 5 5 6 6
9 9 9 10 10 10 10 10 10 9 9 7 5 4 3 3 4 4 3 3 3 3 3 3 3 3 3 2 1 1 2 2 2 2 2 3 3 3 3 3 3 3 3 3 3 4 4 4 4 4 4 4 5 4 4 5 5 5 4 4 3 3 3 4 4 5 5 4 4 3 4 4 5 4 4 4 4 4 5 5 5 5 5 5 7 9 10 11 12 12 12 12 11 7 5 4 4 4 4 5 5 5 5
9 10 10 10 10 10 10 10 10 10 8 6 4 3 4 4 4 3 3 3 3 3 3 3 3 3 3 2 1 1 1 2 2 2 2 2 2 3 3 3 3 3 3 3 3 3 3 4 4 4 4 4 4 4 4 5 5 4 4 3 3 3 4 4 5 5 4 4 3 3 4 4 4 4 4 4 4 4 4 5 5 5 6 7 8 10 11 12 12 12 12 11 10 9 5 3 2 3 3 4 4 5 5
9 10 10 10 10 10 10 10 10 9 7 5 4 4 4 4 3 3 3 3 4 4 3 3 3 3 2 2 2 2 2 2 2 2 2 2 2 2 2 3 3 3 3 3 3 3 3 3 3 3 3 4 4 4 4 4 4 3 3 3 3 4 5 5 5 5 4 3 3 4 3 3 3 4 4 3 3 4 4 5 5 6 6 6 8 10 11 12 12 12 11 10 9 8 5 4 3 3 4 4 5 6 6
9 9 9 9 9 9 9 10 9 8 5 4 4 5 5 4 3 2 3 4 4 4 4 3 3 2 2 2 2 2 2 2 2 2 2 2 2 3 3 3 3 3 2 2 2 2 2 2 3 3 3 3 4 4 4 4 3 3 3 3 4 4 5 6 5 4 3 3 4 3 3 3 4 4 4 4 4 5 5 6 6 6 6 7 8 10 11 11 11 11 10 9 9 9 7 5 4 5 5 5 6 7 8
9 10 9 9 8 8 8 8 7 5 4 4 4 5 4 3 3 3 4 4 5 4 3 2 1 1 2 2 2 2 1 1 2 2 3 3 3 3 3 3 3 2 2 2 2 2 2 3 3 3 3 4 4 4 4 3 3 3 3 4 4 5 5 5 4 3 3 3 3 3 3 3 4 4 4 5 5 5 5 5 6 6 6 7 8 10 10 10 10 9 9 9 10 10 8 7 6 6 6 6 7 8 9
9 10 10 9 9 8 7 6 5 4 4 4 4 4 4 3 3 3 4 4 3 3 2 1 1 1 1 1 1 1 1 1 1 2 2 2 3 3 2 2 1 1 1 1 2 2 3 3 3 3 3 3 3 3 3 3 3 4 4 5 5 5 4 3 3 2 3 3 3 3 3 4 4 5 5 5 5 5 5 5 5 6 6 7 8 9 9 9 9 9 10 11 12 12 9 7 6 6 6 6 7 8 9
10 10 10 10 9 7 6 5 4 4 4 4 4 4 4 4 4 4 3 3 2 2 2 2 1 1 1 1 1 1 1 1 1 2 2 2 2 2 1 1 1 1 1 1 1 2 2 2 2 2 2 2 2 3 3 4 4 4 5 5 5 4 2 2 2 2 2 3 3 3 3 4 4 5 5 5 5 5 5 5 5 5 5 6 8 9 9 9 9 10 12 13 14 13 9 7 6 7 7 7 8 9 9
Wind_Direction
196 134 130 131 133 135 132 126 121 118 117 116 115 114 113 110 108 108 118 126 134 146 144 146 166 221 216 177 130 107 86 74 70 78 77 72 62 52 54 48 41 32 330 259 253 242 228 218 218 229 223 217 212 205 207 204 201 197 195 195 197 202 202 199 194 187 176 164 153 146 149 155 165 177 184 187 185 174 150 142 143 148 151 156 165 179 181 180 176 173 164 164 170 172 160 152 128 334 319 301 270 224 174
89 107 118 125 129 130 127 123 119 115 108 101 96 99 109 112 113 118 128 139 148 154 150 162 188 220 215 182 148 140 134 125 120 130 126 128 131 133 107 98 125 185 212 225 232 231 219 208 204 219 224 218 213 214 213 209 203 200 198 198 199 203 202 199 196 193 182 172 163 160 159 162 169 178 179 180 181 181 169 161 159 162 165 172 181 187 183 181 180 172 156 146 141 135 137 137 135 113 315 305 299 297 88
71 92 108 117 121 123 121 121 120 119 112 106 98 89 111 121 130 140 147 154 156 152 156 172 193 213 205 187 173 170 169 169 170 167 157 160 169 176 176 182 192 200 205 212 218 222 219 217 219 233 226 216 212 217 217 213 208 203 201 201 202 203 201 199 198 198 188 181 175 171 165 164 168 174 178 182 185 188 183 176 174 177 177 179 181 181 175 169 162 148 131 119 112 102 102 124 137 141 183 258 272 273 208
74 91 107 116 121 123 123 126 129 130 132 140 156 168 145 145 151 154 151 149 151 155 169 181 194 205 198 194 194 194 188 181 174 165 169 178 184 181 175 181 190 197 195 203 213 212 207 207 213 224 220 211 206 209 214 215 213 208 205 204 203 202 201 201 201 200 194 188 182 177 174 171 171 172 177 184 191 194 187 183 181 182 176 168 160 157 159 155 147 136 130 125 121 117 116 124 139 144 172 220 248 238 201
85 105 117 124 128 130 132 136 140 143 146 152 159 166 166 164 158 147 144 147 155 167 181 189 194 200 197 198 201 206 201 191 180 174 190 196 195 185 175 179 189 199 194 202 214 220 210 209 212 218 218 212 203 200 208 212 214 211 209 207 204 201 201 202 203 202 198 192 187 184 185 183 178 173 177 186 194 196 188 186 183 177 165 155 147 143 147 150 146 136 137 139 142 142 148 149 124 103 185 244 261 242 191
80 123 131 135 138 137 138 141 146 152 145 142 146 156 162 158 151 148 156 162 167 173 185 191 195 199 202 203 205 209 207 199 193 194 200 199 196 193 189 190 195 204 200 201 210 233 231 227 225 229 227 219 206 198 203 211 217 218 214 211 206 202 200 201 203 204 200 195 191 190 190 190 187 182 184 188 190 184 188 192 189 173 164 163 167 170 161 158 150 125 127 133 141 146 144 142 133 19 346 312 296 284 185
300 289 201 148 140 139 146 155 161 160 138 132 141 154 159 162 165 168 172 174 176 180 187 191 193 196 202 206 210 213 212 206 203 205 205 202 198 196 196 198 201 205 205 205 209 223 237 258 289 274 265 250 228 211 206 212 218 220 216 214 211 205 201 200 202 203 200 196 193 193 194 194 193 190 192 190 184 175 183 190 193 180 167 165 167 170 173 174 165 145 141 143 146 144 138 132 125 96 11 337 318 312 305
300 303 281 187 177 177 178 179 178 163 149 153 162 169 173 179 183 183 183 183 186 191 193 192 191 193 198 204 210 214 215 211 209 212 211 206 200 199 208 219 228 243 288 296 290 261 337 350 342 314 293 269 246 229 220 218 217 214 215 216 214 207 202 200 200 201 200 197 194 192 195 197 197 194 193 190 185 179 177 178 180 181 163 156 157 164 176 181 178 166 166 160 153 143 139 129 123 121 110 338 313 313 324
252 248 202 201 206 208 202 193 179 162 166 171 177 182 185 186 187 187 187 188 190 197 196 192 190 193 199 204 209 214 215 214 212 213 209 203 200 214 232 247 283 325 331 329 326 325 319 308 291 281 268 260 248 231 228 226 223 215 214 212 210 205 203 201 200 200 200 198 195 192 194 196 197 195 191 187 182 174 168 166 166 165 156 152 156 166 174 174 166 156 153 151 148 143 140 137 134 132 135 138 316 323 324
208 214 205 210 219 231 231 214 189 181 186 187 189 193 195 192 189 188 187 188 191 200 198 196 197 202 206 209 211 214 216 215 212 209 202 198 199 207 213 216 223 242 260 264 264 265 260 254 245 238 240 239 236 224 223 225 225 220 214 210 207 203 203 202 201 200 199 199 197 195 194 194 193 191 185 178 170 162 159 158 159 160 158 155 155 159 154 144 135 133 138 149 158 155 141 135 135 139 136 133 123 61 339
210 220 224 229 238 248 248 231 210 200 198 198 200 204 203 198 191 188 186 188 193 202 202 203 206 212 216 219 220 218 217 214 211 204 198 197 201 205 205 205 208 212 220 225 227 230 237 235 230 225 223 222 221 220 219 219 219 218 213 209 206 203 202 202 202 202 201 199 199 198 196 193 189 185 176 167 161 158 157 155 155 158 157 151 145 141 134 133 137 143 145 156 166 164 138 129 130 141 135 125 113 93 17
220 220 230 230 227 229 232 226 217 210 203 205 210 213 205 197 193 194 191 193 199 208 210 210 212 215 219 222 224 222 219 214 208 197 193 197 205 211 207 208 210 213 216 220 224 227 235 237 234 228 224 220 218 221 220 218 217 217 216 214 208 205 203 201 201 203 203 201 200 199 196 192 185 177 172 165 160 157 154 151 150 154 151 145 137 132 135 141 146 144 146 154 158 148 126 121 129 138 125 110 97 85 59
214 215 223 220 215 216 222 221 218 213 208 210 213 218 196 190 197 203 195 198 206 214 215 217 219 220 221 224 227 229 222 215 205 194 192 197 205 213 211 212 216 220 222 225 227 231 238 243 245 241 237 232 228 228 227 222 218 218 219 217 212 207 206 204 202 203 203 203 201 199 196 190 183 174 171 167 161 155 150 148 148 152 149 144 137 135 140 143 144 137 140 143 140 126 116 118 123 125 113 102 93 84 80
221 221 225 222 217 215 218 219 218 214 213 214 212 195 181 191 201 206 201 204 208 214 215 218 220 223 224 227 229 232 225 217 208 201 197 199 205 211 210 214 220 224 228 230 233 233 238 244 248 247 244 241 239 236 233 227 223 223 221 219 217 213 208 207 206 204 202 202 202 200 196 190 183 176 176 170 163 153 147 146 149 152 147 141 136 136 141 144 143 136 136 133 124 111 110 111 112 111 105 101 100 105 109
222 225 228 227 224 220 219 217 216 216 217 216 207 183 187 195 201 204 205 207 209 212 215 218 222 226 230 232 233 236 230 222 215 211 207 207 209 211 209 213 219 223 230 235 238 237 240 244 248 251 250 249 247 245 240 235 231 230 224 222 220 218 212 210 210 208 203 201 200 199 195 190 186 180 177 170 162 151 147 148 149 149 142 135 130 133 136 135 129 122 119 111 102 94 93 92 92 91 93 97 102 112 108
222 226 229 230 228 225 221 216 213 212 210 209 204 195 193 197 200 202 204 207 209 211 216 221 226 232 236 236 237 238 234 227 221 218 216 216 215 215 212 215 220 222 229 237 243 242 244 247 251 253 256 255 254 251 245 241 238 236 230 225 223 222 217 213 211 211 207 203 200 198 194 190 187 182 176 168 160 150 149 149 147 141 133 128 126 127 123 116 109 104 101 96 91 84 81 76 72 66 70 78 86 90 79
234 238 238 238 235 229 231 221 207 199 205 207 206 200 197 200 202 202 205 207 209 209 215 220 225 232 237 238 236 236 235 229 224 222 223 223 221 218 215 218 223 225 228 236 245 248 249 251 254 254 256 255 254 253 247 244 243 241 236 231 227 225 221 216 213 211 209 205 200 196 192 188 183 177 170 162 153 146 145 142 135 126 120 117 116 115 109 103 98 95 91 87 83 75 68 61 54 46 39 31 27 27 9
256 258 260 259 255 247 244 222 199 194 206 213 215 206 203 206 209 210 211 211 210 208 212 217 223 230 237 239 238 236 235 231 226 223 226 227 225 218 215 218 223 226 228 234 243 250 252 254 257 259 257 255 253 252 248 246 246 245 242 237 232 229 224 219 214 209 204 199 194 189 182 175 166 157 147 139 132 127 122 113 104 100 96 95 95 97 94 92 88 84 76 70 62 53 46 41 37 30 16 0 348 343 334
268 275 285 291 291 285 247 214 198 194 210 243 330 5 259 228 227 225 221 217 214 211 210 214 223 235 242 245 244 240 236 232 227 224 228 231 229 219 218 220 224 227 229 234 241 248 252 254 257 259 260 258 255 251 248 246 245 246 243 239 235 231 226 220 213 201 186 175 168 162 152 142 130 117 105 99 97 94 87 80 76 74 73 73 73 73 74 71 66 60 53 46 40 35 32 28 23 14 358 343 330 323 315
280 295 309 323 333 337 283 231 214 234 307 346 358 6 336 292 272 268 249 231 223 216 207 211 225 246 257 257 253 249 247 241 234 232 239 243 242 234 230 230 230 231 233 237 241 246 250 252 254 255 256 257 256 252 249 246 245 245 243 240 236 234 227 217 200 174 154 140 128 119 114 108 102 91 81 77 76 73 70 66 63 61 58 57 57 56 52 47 43 39 36 31 27 24 23 18 8 353 336 320 309 301 294
305 323 338 349 355 354 334 313 319 341 351 356 358 349 316 301 298 297 274 255 242 232 212 213 231 259 272 279 284 293 306 316 292 264 263 263 260 252 246 241 238 238 240 242 244 246 248 249 249 250 252 254 255 254 251 249 248 247 245 243 239 234 222 198 163 135 124 114 105 95 88 87 87 82 72 67 64 61 58 56 53 51 48 45 44 43 38 35 33 29 25 22 18 15 12 3 346 325 309 296 286 279 275
321 329 339 346 351 353 338 334 341 353 354 350 340 323 305 299 298 297 288 283 285 303 321 271 263 277 289 305 322 331 337 340 330 303 297 291 280 268 259 251 246 244 247 249 250 249 249 248 247 248 251 252 253 252 252 251 250 249 248 244 239 230 208 176 143 118 106 97 91 82 77 76 76 73 69 64 60 56 54 51 47 44 42 40 38 36 31 28 25 19 13 8 4 2 355 337 312 292 282 276 271 267 265
312 313 314 319 328 345 342 349 354 358 347 333 317 307 298 297 299 299 301 310 329 355 14 17 325 291 297 310 324 330 332 335 335 326 321 310 297 282 275 267 261 257 258 258 258 258 255 253 250 250 252 253 253 250 249 248 248 248 246 244 238 226 194 160 132 111 96 88 84 79 75 73 71 68 67 65 62 57 54 52 50 45 43 41 39 35 30 23 16 9 1 353 347 342 328 305 289 277 272 267 264 259 257
300 305 312 328 0 37 52 50 36 9 315 300 293 290 289 290 291 291 298 310 328 348 26 42 5 311 308 314 324 334 337 338 338 336 327 315 303 294 287 281 275 270 268 267 268 269 266 264 261 259 257 257 256 254 252 249 245 242 239 238 229 197 151 127 112 101 92 87 82 80 77 75 72 69 66 65 64 61 57 55 53 50 46 43 39 35 28 18 9 359 351 343 335 327 311 297 287 278 273 267 260 252 249
316 322 333 15 59 75 80 93 113 153 225 252 264 270 271 271 269 266 267 268 281 339 32 39 28 359 337 332 334 340 338 334 331 332 322 313 305 299 293 287 282 278 277 276 276 275 274 274 273 269 266 264 261 259 257 251 238 218 196 156 110 107 106 102 98 96 93 89 84 79 78 76 73 71 69 68 68 67 63 58 54 52 48 44 38 31 21 11 360 350 343 336 328 316 300 290 280 273 266 258 251 246 246
326 320 323 339 19 67 79 96 130 164 197 225 242 250 253 253 252 249 253 301 18 23 25 28 26 13 350 338 334 333 328 325 323 322 315 309 304 299 296 293 290 288 285 284 282 283 283 283 281 276 276 273 266 251 243 224 182 142 119 101 93 94 99 99 97 93 91 87 82 78 78 78 77 75 74 73 70 68 65 62 58 55 51 46 37 23 9 359 349 343 337 327 310 291 278 270 263 255 249 245 244 246 248
335 332 334 337 341 349 12 63 138 193 209 228 242 252 260 270 283 304 12 31 32 28 26 24 20 7 347 333 327 323 323 322 320 316 312 307 303 300 299 298 297 294 292 291 291 293 291 288 283 276 289 304 311 305 134 112 104 99 95 92 91 92 98 100 98 93 87 84 81 79 80 80 80 78 76 74 72 69 67 65 62 59 52 44 31 8 356 349 342 333 318 299 280 268 261 258 255 248 238 238 243 248 250
1 7 4 356 347 339 352 35 70 67 277 287 298 312 329 344 360 16 32 38 37 31 28 23 15 360 343 333 329 329 328 325 321 317 313 309 306 306 305 303 301 299 301 303 304 301 293 286 281 278 337 8 15 29 43 56 67 77 84 86 87 89 92 94 95 94 88 84 81 80 78 78 78 78 77 77 75 73 68 63 58 52 40 25 7 350 343 333 317 299 280 267 259 256 253 253 252 248 237 236 242 248 251
34 30 25 19 14 12 26 45 50 33 15 9 8 9 14 19 24 30 38 42 42 36 30 21 10 356 347 341 338 335 332 329 325 323 320 317 315 314 313 311 311 312 314 314 311 303 295 290 290 26 43 42 44 51 55 57 62 69 77 83 85 85 84 84 87 90 88 84 81 79 78 78 78 80 81 80 76 69 61 54 44 31 14 354 341 331 317 297 279 264 257 252 249 249 248 248 249 250 246 245 248 251 256
45 46 53 56 55 50 42 38 36 35 34 34 35 37 40 41 40 39 43 45 43 38 29 18 5 354 349 344 339 334 332 329 327 326 323 321 319 318 319 320 323 325 326 325 320 316 326 352 42 65 61 58 58 64 66 67 68 72 79 83 82 79 77 78 81 85 85 84 82 82 82 81 80 77 75 71 66 60 52 41 25 3 343 328 314 299 279 267 258 251 249 248 247 245 246 247 249 252 255 259 263 266 266
57 62 62 59 51 40 38 40 43 46 49 51 52 53 53 50 44 38 36 34 31 27 21 11 1 351 345 339 333 329 328 327 326 324 322 320 320 324 330 333 331 325 325 333 347 1 28 45 56 65 66 66 67 70 72 73 73 74 79 82 83 83 84 84 84 83 84 85 87 87 84 81 76 70 67 65 64 61 48 24 354 329 309 295 282 269 260 254 250 246 248 249 249 249 251 253 255 256 260 264 268 272 271
51 49 45 42 40 40 44 48 51 53 54 53 52 51 49 44 36 29 26 21 17 9 2 357 351 344 336 332 330 329 328 328 327 325 324 325 330 350 12 10 348 329 346 9 24 31 52 65 72 72 71 70 70 72 75 77 78 78 80 83 85 88 87 85 84 84 89 92 92 88 84 80 77 74 76 80 84 84 60 344 304 286 274 266 258 251 248 246 244 241 244 249 251 252 257 260 261 261 262 264 268 270 271
41 39 39 41 44 47 50 52 53 51 49 46 43 39 36 31 25 22 19 14 6 357 352 348 343 338 335 334 334 335 334 333 332 329 328 329 339 55 76 60 34 21 35 44 48 48 57 68 74 75 74 75 75 77 81 83 85 84 84 84 83 81 81 82 85 90 96 97 96 91 90 91 94 100 108 114 118 121 185 245 250 250 246 243 240 238 237 238 239 240 242 247 252 256 261 264 264 263 261 262 264 267 271
36 38 42 46 49 51 52 52 51 49 45 41 37 32 28 23 19 16 11 4 355 348 347 345 342 339 339 340 340 340 338 335 333 330 327 326 331 100 96 80 61 50 52 55 56 56 56 63 70 76 79 83 85 85 85 85 86 85 84 83 82 82 85 89 93 97 99 98 98 99 104 112 122 131 133 137 151 185 217 227 231 232 231 232 232 233 235 237 240 245 249 253 255 259 261 263 263 263 262 261 262 265 269
35 41 47 50 51 50 49 48 46 44 39 35 31 26 22 18 14 8 1 353 347 346 345 344 343 343 343 344 343 341 337 334 332 330 326 324 336 78 89 86 77 67 67 68 68 66 63 65 72 79 82 85 86 86 85 85 85 84 85 86 89 95 97 98 98 101 101 103 106 114 124 132 139 141 149 171 195 211 219 222 224 226 228 231 234 238 240 242 244 249 253 256 255 254 253 255 258 258 257 257 258 262 265
41 45 50 51 49 45 41 37 34 32 28 24 20 17 13 9 4 359 354 350 348 347 345 345 345 346 346 345 344 340 337 336 335 332 329 337 17 59 73 79 80 79 77 79 81 81 75 73 74 80 81 82 85 88 88 88 89 90 93 97 100 104 103 102 104 109 113 119 126 133 136 140 150 165 187 202 211 217 220 222 224 227 231 236 241 245 246 244 241 239 243 247 248 247 244 246 248 249 248 250 253 257 261
50 52 52 49 44 37 31 27 25 23 21 17 13 9 4 359 355 353 352 350 348 345 344 345 347 350 350 349 346 342 341 340 339 331 334 2 41 57 68 73 77 79 77 78 82 88 85 80 76 78 82 85 89 92 94 95 97 100 105 107 108 108 108 111 117 126 133 138 139 134 137 156 185 203 210 214 218 221 224 227 230 234 237 241 243 244 241 233 225 223 229 237 242 245 243 244 245 247 250 253 258 262 265
59 57 52 47 41 33 28 23 20 17 15 11 6 2 357 353 351 351 349 346 343 341 344 348 351 353 352 351 348 345 343 341 338 330 9 44 54 59 65 67 69 70 69 68 71 82 85 82 79 80 86 91 96 98 101 104 107 112 115 116 115 115 117 123 132 143 145 140 134 136 169 197 211 216 218 220 222 225 228 231 234 237 238 239 238 236 228 220 217 222 228 236 244 251 254 255 255 255 259 262 266 269 270
60 56 50 43 36 28 22 17 14 9 6 3 1 357 353 350 347 346 343 340 338 340 347 352 355 356 354 351 347 345 343 342 346 13 53 62 64 64 66 66 64 61 59 57 58 68 80 83 84 86 92 99 105 108 112 115 119 122 125 124 122 122 124 128 135 144 145 156 178 192 206 214 219 223 224 225 227 228 229 231 233 237 236 236 235 232 225 223 226 234 239 245 252 260 263 264 263 261 260 261 263 265 267
52 47 41 33 25 19 14 10 6 2 359 357 355 352 348 344 341 340 337 336 337 342 350 355 357 357 353 348 344 343 342 347 15 55 68 74 76 73 71 71 68 61 58 55 58 67 79 85 88 94 102 109 114 118 121 123 125 130 130 125 119 116 119 124 132 154 193 212 215 215 217 220 223 226 227 228 230 235 237 238 240 245 247 247 247 248 246 243 244 247 251 254 258 262 264 265 264 261 259 258 259 261 263
38 32 26 20 15 12 7 2 358 355 352 349 347 344 340 338 337 336 335 335 337 344 352 356 356 353 348 343 341 341 340 354 51 73 79 86 88 85 79 76 75 72 66 64 68 78 86 92 96 102 110 116 120 123 124 124 124 127 120 107 98 96 103 120 165 203 215 219 221 221 221 221 222 226 228 234 241 249 255 259 260 263 264 264 263 264 264 262 259 255 254 254 255 258 260 261 262 261 261 260 260 261 262
25 20 16 11 7 2 357 353 349 346 343 341 338 336 335 335 335 334 333 333 335 343 351 354 351 345 340 339 341 343 345 15 69 84 90 95 99 97 89 83 82 85 84 84 88 96 102 106 110 112 115 116 118 120 118 119 118 113 94 84 82 89 125 192 213 220 221 222 224 229 227 224 223 233 242 250 256 262 266 269 271 272 271 269 268 268 268 267 266 263 260 256 254 255 257 259 261 262 264 264 264 265 265
16 11 5 359 354 349 346 343 340 337 335 334 333 333 334 334 334 332 331 330 333 340 344 344 340 335 336 340 344 348 359 36 76 93 102 107 107 106 106 102 98 102 107 110 113 114 117 120 121 118 112 108 107 111 118 114 104 91 82 82 99 171 207 216 220 225 227 229 232 242 246 242 238 244 255 260 263 266 269 271 272 273 271 269 268 266 265 265 265 265 265 263 261 260 261 262 264 265 267 268 268 268 268
4 355 350 347 345 343 339 335 332 330 329 329 331 332 334 334 333 330 328 327 329 333 333 331 328 328 333 339 344 350 10 51 83 98 105 109 110 113 119 121 121 127 133 135 132 126 122 118 111 100 94 94 101 115 108 91 82 78 88 123 196 220 222 220 219 227 239 244 242 241 247 247 245 247 258 263 267 269 271 272 273 272 271 269 266 264 263 263 264 266 267 268 269 270 270 271 271 270 271 271 270 270 269
349 344 343 341 339 334 330 326 325 325 326 327 330 332 333 332 330 326 324 323 325 328 328 325 323 322 327 332 339 351 22 63 87 97 100 105 111 117 122 127 132 140 138 134 119 100 86 77 71 71 83 95 104 93 78 76 78 87 139 196 215 226 226 218 211 219 236 243 245 243 249 254 258 258 265 269 272 274 275 274 272 270 269 268 266 264 264 266 267 270 271 273 274 275 276 276 276 275 274 273 272 271 271
343 341 338 333 329 325 323 322 323 324 325 327 328 330 331 329 326 320 318 317 318 322 323 319 316 316 319 325 336 357 27 62 84 97 103 107 109 112 113 118 122 117 99 80 67 62 68 75 82 94 106 98 80 68 68 71 82 135 208 223 229 235 227 214 209 218 232 242 251 258 265 270 273 275 276 276 276 276 274 271 268 266 266 268 269 269 271 272 274 276 277 278 278 279 278 278 277 277 276 275 274 273 272
336 333 328 325 322 321 320 321 321 323 323 324 326 328 328 325 321 315 310 308 306 306 305 304 304 309 317 327 341 2 28 57 80 97 108 109 106 104 97 92 86 78 73 80 88 93 95 95 92 85 73 64 58 55 53 51 36 288 278 280 284 287 284 267 250 242 243 249 258 267 273 277 280 284 282 279 276 274 271 269 266 265 268 272 275 276 278 278 280 281 280 280 280 280 279 278 277 277 277 276 276 274 273
327 325 322 320 318 317 317 317 318 318 318 320 322 324 323 321 316 311 308 306 304 298 291 289 294 304 317 326 335 352 44 65 78 93 104 106 105 103 98 96 101 109 111 109 104 94 79 69 61 54 51 49 45 38 23 358 326 307 304 304 305 307 299 283 266 255 254 258 264 269 273 277 280 284 284 281 277 272 271 271 271 271 273 275 276 278 279 281 282 284 283 282 280 279 277 276 275 274 274 274 274 274 273
320 318 315 312 310 309 310 311 311 312 314 316 318 319 317 315 312 309 310 312 313 312 302 293 292 303 315 314 310 331 65 77 84 96 100 99 100 104 115 125 130 122 109 98 87 77 67 62 58 56 54 51 42 21 343 309 294 289 291 292 293 292 284 273 264 262 266 271 275 277 277 276 276 279 281 281 280 277 274 273 274 276 276 276 276 278 280 280 281 282 283 282 280 277 276 275 273 272 272 271 272 272 272
313 311 307 304 302 302 303 304 305 307 308 310 312 312 310 305 300 300 303 306 308 309 297 287 283 297 304 305 307 354 78 92 103 115 113 110 110 120 133 132 121 106 96 89 85 84 84 85 85 85 84 84 85 263 262 262 265 269 273 276 278 280 273 267 266 272 280 285 287 286 283 279 276 273 272 275 278 280 279 278 279 280 279 279 279 280 282 282 281 281 282 282 281 279 277 277 276 274 272 270 269 268 268
308 307 304 301 299 297 297 298 300 301 302 303 304 303 293 283 278 285 289 291 290 289 278 269 265 275 286 296 305 48 105 118 133 143 135 134 137 145 140 125 110 101 96 96 99 106 116 124 133 141 153 174 200 220 234 244 253 260 264 267 269 268 266 267 274 285 290 291 291 290 288 285 281 273 268 268 272 276 281 283 284 283 282 281 283 285 284 284 284 283 283 282 281 280 278 278 278 276 272 269 266 265 264
308 307 305 302 299 297 297 296 296 297 297 298 296 285 269 261 264 274 281 283 281 276 265 254 242 240 253 262 266 130 127 137 153 164 154 152 153 156 141 125 113 108 111 121 134 144 153 166 179 186 192 200 209 219 230 241 250 258 263 264 263 260 266 277 288 295 292 289 288 288 287 283 279 275 272 270 269 272 277 281 283 283 282 282 284 285 285 285 285 285 285 284 283 281 278 276 274 274 272 269 266 263 263
309 308 306 304 301 300 298 296 294 293 293 291 283 263 254 256 264 273 279 283 285 279 263 249 235 228 237 244 247 162 141 148 163 175 170 164 160 157 141 131 128 132 145 160 170 177 190 200 205 205 206 210 216 223 232 241 250 258 261 262 262 266 283 293 296 293 288 287 287 289 281 276 273 274 275 275 274 275 276 277 278 281 281 282 283 285 286 286 287 287 288 288 288 286 283 277 274 274 273 271 269 265 266
310 309 307 305 302 299 296 293 291 289 287 281 269 250 247 253 263 273 278 282 280 271 258 245 235 228 228 234 234 176 157 160 165 171 177 174 163 152 146 149 158 167 177 187 197 210 222 224 221 214 215 218 223 229 237 246 253 260 261 264 272 288 296 295 291 285 287 290 292 286 277 274 274 275 274 276 279 284 283 282 280 280 281 282 284 286 287 288 289 290 291 292 294 299 296 290 281 278 278 277 276 274 273
307 306 305 303 301 298 295 292 289 286 280 269 255 246 243 246 255 274 280 275 267 258 249 238 230 222 214 207 205 200 180 168 162 160 173 178 172 160 167 178 187 191 193 202 217 234 242 241 235 225 224 226 231 237 245 252 258 261 264 275 286 294 290 284 280 281 289 291 285 276 275 278 278 277 276 279 284 287 287 287 285 285 284 284 286 288 289 290 292 293 295 298 303 310 307 300 290 283 281 281 280 280 278
301 301 301 300 300 298 295 291 287 281 269 252 239 241 243 242 249 271 272 260 249 238 234 227 218 204 195 195 199 203 192 175 165 163 178 186 188 184 191 198 202 202 201 206 219 236 244 244 239 233 232 234 239 245 251 255 257 260 271 281 286 285 280 280 281 290 291 282 275 271 273 275 277 279 283 285 286 287 287 287 287 287 285 285 287 289 290 291 294 297 302 306 310 312 308 301 292 285 282 280 280 280 278
298 299 301 301 300 297 293 288 283 273 260 247 241 244 248 250 252 261 260 249 238 227 224 219 208 192 192 190 188 189 198 191 178 174 186 196 203 205 209 210 208 203 201 203 211 225 236 239 239 238 239 242 246 250 252 253 256 264 274 279 279 277 280 285 291 296 287 281 280 282 281 279 280 284 287 288 288 287 288 289 290 289 286 285 286 289 290 293 297 304 309 311 312 311 306 300 293 286 283 280 279 277 275
299 300 300 299 297 295 294 291 286 274 261 255 253 256 268 276 279 271 260 251 242 235 227 220 213 209 198 183 171 175 188 207 211 200 198 205 214 223 229 230 223 212 206 205 212 224 236 243 248 250 251 254 256 256 255 257 263 272 277 278 279 280 284 285 280 271 268 271 275 280 283 285 286 288 289 290 291 290 289 290 291 291 288 287 289 292 294 299 305 311 314 314 312 312 307 301 294 287 284 281 278 276 273
298 299 298 297 295 293 293 290 283 270 261 260 265 274 289 298 298 288 272 262 257 250 225 206 200 218 211 194 180 180 183 203 222 226 212 210 220 238 260 279 283 262 243 239 242 245 254 264 275 284 287 284 278 271 268 268 270 275 278 281 283 285 281 266 247 238 240 246 253 260 273 283 290 293 295 295 295 293 293 293 293 291 289 291 295 298 301 307 312 315 316 315 314 313 309 301 294 287 283 280 277 274 272